ONEWEB-0700

operational
NORAD ID: 61606 Int'l Des: 2024-188 Owner: ONEWEBE Country: UK Constellation: oneweb
LEOCIRCULARPOLARONEWEB_TYPE

About ONEWEB-0700

Description loading...

Live Position

Loading 3D Globe...

Upcoming Passes

Altitude History

Altitude vs Time

uPlot chart will show altitude changes over time

Two-Line Element Set

1 61606U 24188N 25251.61072089 .00000330 00000-0 90915-3 0 9993
2 61606 87.8738 92.2941 0001708 108.3092 251.8222 13.10375954 46424
Epoch: Sep 8, 2025 • Age: 13 hours

Current Status

Altitude 1223.9 km
Velocity 7.24 km/s
Sub-Earth Point 15.58°N, 50.87°E
Launch Date Oct 20, 2024
Age 0.8 years
Type internet

Technical Details

Classification Payload
Mass 148.00 kg
Dry Mass 140.00 kg
Total Mass 148.00 kg
Length 1.30 m
Diameter 1.00 m
Span 5.00 m
Shape Trapezoid+2 pan
Manufacturer ONEWUS
Bus Type ARROW
Phase Status In Orbit
Owner/State ONEWEBE/UK

Large Constellations

Loading constellations...